This is the latest recevied weather packets stored in our database for station/object VK3VJP-13. If no packets are shown the sender has not sent any weather packets the latest 1 day(s).
| Time | Temp. | Humidity | Pressure | Rain* | Wind** | Luminosity | Snow |
|---|---|---|---|---|---|---|---|
| 1778058781 | 8.33° C | 93% | 1016.7 hPa | 3.05 mm | - | - | - |
| 1778058481 | 8.33° C | 92% | 1016.6 hPa | 3.05 mm | - | - | - |
| 1778058181 | 8.33° C | 92% | 1016.5 hPa | 3.3 mm | - | - | - |
| 1778057881 | 8.33° C | 92% | 1016.5 hPa | 3.3 mm | - | - | - |
| 1778057281 | 9.44° C | 92% | 1016.4 hPa | 3.3 mm | - | - | - |
| 1778056981 | 9.44° C | 92% | 1016.3 hPa | 3.05 mm | - | - | - |
| 1778056681 | 10° C | 93% | 1016.2 hPa | 2.79 mm | - | - | - |
| 1778056381 | 10° C | 92% | 1015.9 hPa | 2.54 mm | - | - | - |
| 1778056081 | 10° C | 93% | 1015.9 hPa | 2.54 mm | - | - | - |
| 1778055781 | 10.56° C | 94% | 1015.7 hPa | 2.03 mm | - | - | - |
| 1778055481 | 10° C | 94% | 1015.3 hPa | 0.25 mm | - | - | - |
| 1778055181 | 10° C | 93% | 1015.3 hPa | 0.25 mm | - | - | - |
| 1778054881 | 10° C | 93% | 1015.3 hPa | 0.25 mm | - | - | - |
| 1778054581 | 10° C | 93% | 1015.2 hPa | 0 mm | - | - | - |
| 1778054281 | 10.56° C | 93% | 1015.3 hPa | 0 mm | - | - | - |
| 1778053681 | 10.56° C | 93% | 1015.2 hPa | 2.54 mm | - | - | - |
| 1778053381 | 10.56° C | 93% | 1015.2 hPa | 3.56 mm | - | - | - |
| 1778053081 | 10.56° C | 93% | 1015.2 hPa | 4.32 mm | - | - | - |
| 1778051581 | 11.11° C | 93% | 1015.4 hPa | 5.08 mm | - | - | - |
| 1778050681 | 11.11° C | 91% | 1015.5 hPa | 5.08 mm | - | - | - |
| 1778045881 | 12.78° C | 85% | 1015.4 hPa | 0 mm | - | - | - |
| 1778045281 | 12.78° C | 84% | 1015.6 hPa | 0 mm | - | - | - |
| 1778041081 | 12.22° C | 82% | 1016.3 hPa | 0 mm | - | - | - |
| 1778040481 | 12.78° C | 82% | 1016.3 hPa | 0 mm | - | - | - |
| 1778039281 | 12.22° C | 80% | 1016.8 hPa | 0 mm | - | - | - |
* Rain latest hour (hover to see other rain measurements)
** Current wind speed in m/s (hover to see current wind gust speed)